COSMOS 252 DEB *, 3901

Orbit data source: Space-Track

COSMOS 252 DEB *, 3901 is space debris in LEO originally from a launch on Fri, 01 Nov 1968 UTC launched from the Tyuratam Missile And Space Complex (TTMTR). Debris objects in space refer to the collection of defunct objects orbiting the Earth. Examples of debris include non-operational satellites, rocket bodies, and fragments generated from explosions, collisions, or faulty payload assembly.

Loading next visibility...
Identifier
3901, 1968-097BN
Orbit
LEO
Country
Flag of CISCIS
Related business
Manufacturer
Unknown
Mission
Spacecraft
Bus & Motor
Unknown
Mass
Unknown
Launch date (UTC)
1968-11-01 (57 years ago)
Launch vehicle
Unknown
Launch site
Tyuratam Missile And Space Complex (TTMTR)
Object type
Payload
Rocket body
Debris
Shape & HBR
Unknown shape, 0.1 m
Radar Cross Section
Small (<0.1 m²)

Expand to show TLE details & history
Last TLE update: 19 hours ago

TLE from 19 hours ago
0 COSMOS 252 DEB *
1 03901U 68097BN  25287.82943745  .00002078  00000-0  15362-2 0  9995
2 03901  61.2723  72.4126 0826987 144.9139 220.9309 12.95564179645749
Epoch: 2025-10-14T19:54Z
TLE epoch observation values (Epoch: 2025-10-14T19:54:23.395Z)
Latitude
0.00001°
Longitude
110.20288°
Altitude
1,780.076 km
Speed
6.76 km/s
True Right ascension
04h 49m 39s
True Declination
0° 00' 00"
Sunlit
Object was in daylight at epoch
Visualization orbit readout
Latitude
Unknown
Longitude
Unknown
Altitude
Unknown
Speed
Unknown
Apparent Right ascension
Unknown
Apparent Declination
Unknown
Sunlit
N/A
Visualization observer readout
Local Sidereal Time
09:36:42
Azimuth
Unknown
Elevation
Unknown
Doppler factor
Unknown
Orbital elements
Apogee altitude
1,911.837 km
Perigee altitude
645.428 km
Semi-major axis
7,656.77 km
Eccentricity
0.0827
Inclination
61.2723°
RAAN
72.4126°
Arg. of periapsis
144.9139°
True anomaly
215.1828°
Mean anomaly
220.9309°
Eccentric anomaly
218.01288°
Mean motion
3.23948 °/min
Orbital period
111.13 mins
BSTAR
0.0015362
Loading maneuver chart data...
Computing Atmospheric mass density...

Documentation

Showing up to 5 results
|